Tracking 30970 objects as of 3-Jul-2025
HD Live streaming from Space Station
objects crossing your sky now

COSMOS 2251 DEB

Track COSMOS 2251 DEB now!
10-day predictions


NORAD ID: 35836
Int'l Code: 1993-036ATJ
Perigee: 657.1 km
Apogee: 699.8 km
Inclination: 74.0 °
Period: 98.2 minutes
Semi major axis: 7049 km
RCS: 0.0112 m2 (small)
Launch date: June 16, 1993
Source: Commonwealth of Independent States (former USSR) (CIS)
Launch site: PLESETSK MISSILE AND SPACE COMPLEX (PKMTR)

Note: This is SATELLITE DEBRIS
Your satellite tracking list
Your tracking list is empty




NASA's NSSDC Master Catalog

Two Line Element Set (TLE):
1 35836U 93036ATJ 25183.53429631  .00006006  00000-0  10742-2 0  9996
2 35836  74.0322 128.6848 0030239 231.9263 127.9178 14.66793042611246
Source of the keplerian elements: AFSPC